Location: Kimberly
(42.5380°N, 114.3640°W)
Time: 21:09:33
(UTC-06:00)

ISS - Visible Passes

Search period start: 22 May 2017 00:00
Search period end: 01 June 2017 00:00
Orbit: 402 x 409 km, 51.6° (Epoch: 23 May)

Date Brightness Start Highest point End Pass type
(mag) Time Alt. Az. Time Alt. Az. Time Alt. Az.
22 May -1.1 01:49:41 18° NNW 01:50:24 19° NNW 01:52:52 10° NE visible
22 May -0.9 03:25:25 10° NW 03:27:47 18° N 03:30:08 10° NE visible
22 May -2.7 05:01:40 10° NW 05:04:51 48° NNE 05:08:02 10° ESE visible
22 May-0.723:25:09ENE23:25:09ENE23:16:19SWvisible
23 May -1.4 00:57:34 22° NW 00:58:11 24° NNW 01:00:55 10° NE visible
23 May -0.8 02:33:17 10° NW 02:35:30 17° N 02:37:43 10° NE visible
23 May -1.9 04:09:44 10° NW 04:12:44 31° NNE 04:15:42 10° E visible
23 May -3.4 22:26:20 10° SSW 22:29:25 40° SE 22:32:32 10° ENE visible
24 May -2.0 00:02:58 10° W 00:05:58 32° NNW 00:08:58 10° NE visible
24 May -0.7 01:40:58 10° NW 01:43:12 17° N 01:45:25 10° NE visible
24 May -1.3 03:17:48 10° NW 03:20:31 23° NNE 03:23:14 10° ENE visible
24 May -4.0 04:54:02 10° WNW 04:57:19 78° SW 05:00:34 10° SE visible
24 May -2.5 21:34:56 10° S 21:37:31 22° SE 21:40:07 10° E visible
24 May -2.9 23:10:36 10° WSW 23:13:49 49° NNW 23:17:02 10° NE visible
25 May -0.9 00:48:30 10° NW 00:50:53 18° N 00:53:15 10° NE visible
25 May -1.0 02:25:48 10° NW 02:28:15 19° NNE 02:30:43 10° ENE visible
25 May -3.3 04:02:00 10° NW 04:05:15 59° NNE 04:08:29 10° ESE visible
25 May -3.8 22:18:26 10° WSW 22:21:43 85° NW 22:25:01 10° NE visible
25 May -1.1 23:55:57 10° WNW 23:58:36 22° NNW 00:01:13 10° NE visible
26 May -0.8 01:33:41 10° NW 01:35:56 17° N 01:38:12 10° NE visible
26 May -2.3 03:10:02 10° NW 03:13:07 36° NNE 03:16:11 10° E visible
26 May -3.1 04:46:37 10° WNW 04:49:34 32° SW 04:52:30 10° SSE visible
26 May -1.6 23:03:25 10° W 23:06:20 28° NNW 23:09:15 10° NE visible
27 May -0.7 00:41:23 10° NW 00:43:36 16° N 00:45:48 10° NE visible
27 May -1.6 02:18:04 10° NW 02:20:54 26° NNE 02:23:07 14° ENE visible
27 May -1.8 03:54:21 10° WNW 04:01:12 - SE 03:55:18 18° WNW visible
27 May -2.4 22:10:58 10° W 22:14:07 41° NNW 22:17:16 10° NE visible
27 May -0.8 23:48:56 10° NW 23:51:15 17° N 23:53:33 10° NE visible
28 May -1.1 01:26:03 10° NW 01:28:36 20° NNE 01:30:05 16° NE visible
28 May -1.1 03:02:15 10° NW 03:02:39 13° NW 03:02:39 13° NW visible
28 May -1.0 22:56:22 10° WNW 22:58:54 20° NNW 23:01:26 10° NE visible
29 May -0.9 00:33:56 10° NW 00:36:16 18° N 00:38:35 10° NE visible
29 May -1.4 02:10:13 10° NW 02:11:29 20° NW 02:11:29 20° NW visible
29 May -1.4 22:03:46 10° WNW 22:06:35 25° NNW 22:09:24 10° NE visible
29 May -0.8 23:41:40 10° NW 23:43:53 17° N 23:46:06 10° NE visible
30 May -1.7 01:18:12 10° NW 01:20:39 28° N 01:20:39 28° N visible
30 May -0.8 22:49:14 10° NW 22:51:30 17° N 22:53:45 10° NE visible
31 May -1.5 00:26:11 10° NW 00:28:51 22° NNE 00:29:58 19° NE visible
31 May -0.8 02:02:23 10° NW 02:02:35 11° NW 02:02:35 11° NW visible
31 May -1.0 21:56:39 10° WNW 21:59:06 19° N 22:01:33 10° NE visible
31 May -1.1 23:34:04 10° NW 23:36:28 18° N 23:38:52 10° ENE visible
